Weather History for Seward, AK

Change the Weather History Date:

Thursday, September 8, 2011

  Actual Average Record
Temperature  
Mean Temperature 50 °F -  
Max Temperature 53 °F 56 °F 69 °F (1964)
Min Temperature 46 °F 45 °F 37 °F (1996)
Degree Days  
Heating Degree Days 16    
Moisture  
Dew Point 46 °F    
Average Humidity 90    
Maximum Humidity 100    
Minimum Humidity 74    
Precipitation  
Precipitation 0.21 in - - ()
Sea Level Pressure  
Sea Level Pressure 29.96 in    
Wind  
Wind Speed 10 mph (South)    
Max Wind Speed 15 mph    
Max Gust Speed 25 mph    
Visibility 10 miles    
Events Rain    
Averages and records for this station are not official NWS values.
T = Trace of Precipitation, MM = Missing Value Source: NWS Daily Summary

Daily Weather History Graph

Daily Weather History Graph

Search for Another Location

Airport:

Trip Planner

Search our weather history database for the weather conditions in past years. The results will help you decide how hot, cold, wet, or windy it might be!

Date:

Astronomy

Sep. 08, 2011 Rise Set
Actual Time 7:08 AM AKDT 8:40 PM AKDT
Civil Twilight 6:25 AM AKDT 9:23 PM AKDT
Nautical Twilight 5:29 AM AKDT 10:18 PM AKDT
Astronomical Twilight 4:23 AM AKDT 11:23 PM AKDT
Moon 7:15 PM AKDT (9/8) 2:49 AM AKDT (9/8)
Length of Visible Light 14h 58m
Length of Day
13h 31m
Waxing Gibbous, 88% of the Moon is Illuminated
Sep 8
Waxing Gibbous
Sep 12
Full
Sep 20
Last Quarter
Sep 27
New
Oct 3
First Quarter

Hourly Weather History & Observations

Time (AKDT) Temp. Windchill Dew Point Humidity Pressure Visibility Wind Dir Wind Speed Gust Speed Precip Events Conditions
12:45 AM 46.4 °F 40.1 °F 46.4 °F 100% 29.91 in 10.0 mi SSW 15.0 mph 21.9 mph 0.02 in Rain Light Rain
12:53 AM 46.0 °F 39.6 °F 46.0 °F 100% 29.92 in 10.0 mi SSW 15.0 mph 21.9 mph 0.02 in Rain Light Rain
1:13 AM 46.4 °F 41.1 °F 46.4 °F 100% 29.93 in 10.0 mi South 11.5 mph 19.6 mph 0.02 in Rain Light Rain
1:53 AM 46.0 °F 39.9 °F 46.0 °F 100% 29.94 in 10.0 mi SSW 13.8 mph 19.6 mph 0.03 in Rain Light Rain
2:53 AM 46.9 °F - 46.0 °F 97% 29.96 in 10.0 mi SSW 13.8 mph 23.0 mph 0.01 in   Overcast
3:53 AM 46.0 °F 42.5 °F 46.0 °F 100% 29.96 in 7.0 mi South 6.9 mph - 0.02 in Rain Light Rain
4:53 AM 46.0 °F 42.5 °F 46.0 °F 100% 29.97 in 10.0 mi South 6.9 mph - 0.01 in   Overcast
5:53 AM 46.0 °F 39.6 °F 46.0 °F 100% 29.97 in 8.0 mi South 15.0 mph 25.3 mph 0.06 in Rain Light Rain
6:53 AM 48.0 °F - 46.0 °F 93% 29.99 in 10.0 mi SSW 13.8 mph 20.7 mph 0.00 in Rain Light Rain
7:53 AM 48.0 °F - 45.0 °F 89% 30.00 in 9.0 mi SSW 12.7 mph 19.6 mph 0.03 in Rain Light Rain
8:53 AM 48.0 °F - 44.1 °F 86% 30.02 in 9.0 mi SSW 10.4 mph 17.3 mph 0.02 in Rain Light Rain
9:17 AM 48.2 °F - 44.6 °F 87% 30.02 in 10.0 mi SSW 11.5 mph 17.3 mph 0.01 in Rain Light Rain
9:53 AM 48.9 °F - 46.0 °F 90% 30.03 in 7.0 mi SE 5.8 mph - 0.01 in Rain Light Rain
11:53 AM 50.0 °F - 46.0 °F 86% 30.03 in 10.0 mi ESE 8.1 mph - N/A   Overcast
12:53 PM 51.1 °F - 46.0 °F 83% 30.02 in 10.0 mi SE 4.6 mph - N/A   Overcast
1:53 PM 53.1 °F - 45.0 °F 74% 30.01 in 10.0 mi South 3.5 mph - N/A   Overcast
2:53 PM 52.0 °F - 45.0 °F 77% 29.99 in 10.0 mi South 3.5 mph - N/A   Scattered Clouds
3:53 PM 52.0 °F - 46.0 °F 80% 29.96 in 10.0 mi South 5.8 mph - N/A   Mostly Cloudy
4:53 PM 51.1 °F - 45.0 °F 80% 29.95 in 10.0 mi SSE 4.6 mph - N/A   Overcast
5:53 PM 51.1 °F - 46.0 °F 83% 29.94 in 10.0 mi Calm Calm - N/A   Overcast
6:53 PM 50.0 °F - 46.0 °F 86% 29.91 in 10.0 mi ESE 3.5 mph - N/A   Partly Cloudy
7:53 PM 50.0 °F - 45.0 °F 83% 29.91 in 10.0 mi Calm Calm - N/A   Mostly Cloudy
8:53 PM 48.9 °F - 46.0 °F 90% 29.90 in 10.0 mi North 3.5 mph - N/A   Overcast
9:53 PM 48.0 °F - 46.0 °F 93% 29.88 in 10.0 mi Calm Calm - N/A   Overcast
10:53 PM 46.9 °F - 45.0 °F 93% 29.88 in 10.0 mi Calm Calm - N/A   Overcast
11:53 PM 48.0 °F - 45.0 °F 89% 29.86 in 10.0 mi North 9.2 mph - 0.00 in   Overcast